Time,TemperatureF,DewpointF,PressureIn,WindDirection,WindDirectionDegrees,WindSpeedMPH,WindSpeedGustMPH,Humidity,HourlyPrecipIn,Conditions,Clouds,dailyrainin,SolarRadiationWatts/m^2,SoftwareType,DateUTC
2013-05-03 00:02:00,46.8,39.0,30.49,East,96,0.0,2.0,73,0.00,,,0.00,0,weatherlink.com 1.10,2013-05-03 04:02:00,
2013-05-03 00:17:00,46.3,38.0,30.49,East,96,1.0,1.0,74,0.00,,,0.00,0,weatherlink.com 1.10,2013-05-03 04:17:00,
2013-05-03 00:32:00,46.0,39.0,30.49,East,96,0.0,2.0,77,0.00,,,0.00,0,weatherlink.com 1.10,2013-05-03 04:32:00,
2013-05-03 00:47:00,45.9,38.0,30.49,East,100,2.0,3.0,75,0.00,,,0.00,0,weatherlink.com 1.10,2013-05-03 04:47:00,
2013-05-03 01:02:00,46.0,39.0,30.49,ESE,107,0.0,4.0,75,0.00,,,0.00,0,weatherlink.com 1.10,2013-05-03 05:02:00,
2013-05-03 01:17:00,45.6,38.0,30.48,ESE,115,1.0,3.0,76,0.00,,,0.00,0,weatherlink.com 1.10,2013-05-03 05:17:00,
2013-05-03 01:32:00,45.4,39.0,30.48,ESE,115,0.0,1.0,77,0.00,,,0.00,0,weatherlink.com 1.10,2013-05-03 05:32:00,
2013-05-03 01:47:00,45.2,38.0,30.48,ESE,106,1.0,6.0,77,0.00,,,0.00,0,weatherlink.com 1.10,2013-05-03 05:47:00,
2013-05-03 02:02:00,45.4,38.0,30.47,SE,124,3.0,5.0,75,0.00,,,0.00,0,weatherlink.com 1.10,2013-05-03 06:02:00,
2013-05-03 02:17:00,45.5,38.0,30.47,East,95,3.0,6.0,75,0.00,,,0.00,0,weatherlink.com 1.10,2013-05-03 06:17:00,
2013-05-03 02:32:00,45.2,38.0,30.47,ESE,113,2.0,6.0,75,0.00,,,0.00,0,weatherlink.com 1.10,2013-05-03 06:32:00,
2013-05-03 02:47:00,45.0,38.0,30.47,ESE,105,3.0,4.0,75,0.00,,,0.00,0,weatherlink.com 1.10,2013-05-03 06:47:00,
2013-05-03 03:02:00,44.9,37.0,30.47,SE,140,0.0,5.0,75,0.00,,,0.00,0,weatherlink.com 1.10,2013-05-03 07:02:00,
2013-05-03 03:18:00,44.8,37.0,30.47,ESE,113,2.0,3.0,75,0.00,,,0.00,0,weatherlink.com 1.10,2013-05-03 07:18:00,
2013-05-03 03:33:00,44.6,37.0,30.47,ESE,117,1.0,6.0,75,0.00,,,0.00,0,weatherlink.com 1.10,2013-05-03 07:33:00,
2013-05-03 03:48:00,44.5,37.0,30.47,ESE,123,4.0,7.0,76,0.00,,,0.00,0,weatherlink.com 1.10,2013-05-03 07:48:00,
2013-05-03 04:03:00,44.3,37.0,30.47,ESE,109,1.0,5.0,76,0.00,,,0.00,0,weatherlink.com 1.10,2013-05-03 08:03:00,
2013-05-03 04:18:00,44.0,37.0,30.47,East,97,4.0,7.0,77,0.00,,,0.00,0,weatherlink.com 1.10,2013-05-03 08:18:00,
2013-05-03 04:33:00,43.6,37.0,30.47,East,94,0.0,7.0,78,0.00,,,0.00,0,weatherlink.com 1.10,2013-05-03 08:33:00,
2013-05-03 04:48:00,43.3,37.0,30.48,SE,137,2.0,7.0,79,0.00,,,0.00,0,weatherlink.com 1.10,2013-05-03 08:48:00,
2013-05-03 05:03:00,43.0,37.0,30.48,ESE,117,3.0,4.0,80,0.00,,,0.00,0,weatherlink.com 1.10,2013-05-03 09:03:00,
2013-05-03 05:18:00,42.8,37.0,30.49,SE,144,0.0,4.0,81,0.00,,,0.00,0,weatherlink.com 1.10,2013-05-03 09:18:00,
2013-05-03 05:33:00,42.8,38.0,30.49,ESE,105,1.0,3.0,82,0.00,,,0.00,0,weatherlink.com 1.10,2013-05-03 09:33:00,
2013-05-03 05:48:00,42.5,38.0,30.50,East,96,0.0,7.0,83,0.00,,,0.00,7,weatherlink.com 1.10,2013-05-03 09:48:00,
2013-05-03 06:03:00,42.6,38.0,30.50,ESE,116,1.0,8.0,84,0.00,,,0.00,14,weatherlink.com 1.10,2013-05-03 10:03:00,
2013-05-03 06:18:00,42.5,38.0,30.51,SE,134,2.0,7.0,84,0.00,,,0.00,21,weatherlink.com 1.10,2013-05-03 10:18:00,
2013-05-03 06:33:00,42.6,38.0,30.51,ESE,117,6.0,9.0,85,0.00,,,0.00,26,weatherlink.com 1.10,2013-05-03 10:33:00,
2013-05-03 06:48:00,42.9,39.0,30.51,ESE,119,7.0,8.0,85,0.00,,,0.00,30,weatherlink.com 1.10,2013-05-03 10:48:00,
2013-05-03 07:03:00,43.5,39.0,30.51,East,88,2.0,9.0,84,0.00,,,0.00,40,weatherlink.com 1.10,2013-05-03 11:03:00,
2013-05-03 07:18:00,44.5,40.0,30.52,ESE,113,3.0,8.0,83,0.00,,,0.00,109,weatherlink.com 1.10,2013-05-03 11:18:00,
2013-05-03 07:33:00,45.2,40.0,30.52,ESE,118,4.0,9.0,81,0.00,,,0.00,54,weatherlink.com 1.10,2013-05-03 11:33:00,
2013-05-03 07:48:00,45.6,40.0,30.52,ESE,102,9.0,11.0,80,0.00,,,0.00,65,weatherlink.com 1.10,2013-05-03 11:48:00,
2013-05-03 08:03:00,46.1,40.0,30.52,East,90,9.0,9.0,80,0.00,,,0.00,134,weatherlink.com 1.10,2013-05-03 12:03:00,
2013-05-03 08:18:00,46.6,40.0,30.52,South,178,2.0,9.0,78,0.00,,,0.00,174,weatherlink.com 1.10,2013-05-03 12:18:00,
2013-05-03 08:33:00,47.4,40.0,30.53,SSE,156,3.0,9.0,76,0.00,,,0.00,74,weatherlink.com 1.10,2013-05-03 12:33:00,
2013-05-03 08:48:00,48.1,40.0,30.53,ESE,105,2.0,9.0,73,0.00,,,0.00,214,weatherlink.com 1.10,2013-05-03 12:48:00,
2013-05-03 09:03:00,49.4,40.0,30.52,ESE,122,2.0,10.0,69,0.00,,,0.00,151,weatherlink.com 1.10,2013-05-03 13:03:00,
2013-05-03 09:18:00,49.4,40.0,30.52,NE,55,1.0,12.0,70,0.00,,,0.00,116,weatherlink.com 1.10,2013-05-03 13:18:00,
2013-05-03 09:33:00,50.3,40.0,30.52,NW,322,1.0,8.0,67,0.00,,,0.00,111,weatherlink.com 1.10,2013-05-03 13:33:00,
2013-05-03 09:48:00,51.2,39.0,30.51,SSE,156,3.0,10.0,64,0.00,,,0.00,72,weatherlink.com 1.10,2013-05-03 13:48:00,
2013-05-03 10:03:00,51.4,40.0,30.51,NNE,28,2.0,9.0,65,0.00,,,0.00,127,weatherlink.com 1.10,2013-05-03 14:03:00,
2013-05-03 10:19:00,53.2,39.0,30.51,SSW,207,2.0,6.0,60,0.00,,,0.00,214,weatherlink.com 1.10,2013-05-03 14:19:00,
2013-05-03 10:34:00,54.2,39.0,30.51,ESE,119,5.0,9.0,57,0.00,,,0.00,167,weatherlink.com 1.10,2013-05-03 14:34:00,
2013-05-03 10:49:00,54.1,40.0,30.50,SSE,153,7.0,9.0,59,0.00,,,0.00,98,weatherlink.com 1.10,2013-05-03 14:49:00,
2013-05-03 11:04:00,54.6,39.0,30.50,SE,140,2.0,12.0,57,0.00,,,0.00,172,weatherlink.com 1.10,2013-05-03 15:04:00,
2013-05-03 11:19:00,54.8,40.0,30.49,South,176,2.0,9.0,57,0.00,,,0.00,86,weatherlink.com 1.10,2013-05-03 15:19:00,
2013-05-03 11:34:00,55.4,39.0,30.49,SE,142,3.0,11.0,55,0.00,,,0.00,70,weatherlink.com 1.10,2013-05-03 15:34:00,
2013-05-03 11:49:00,56.4,41.0,30.48,ENE,77,3.0,9.0,56,0.00,,,0.00,341,weatherlink.com 1.10,2013-05-03 15:49:00,
2013-05-03 12:04:00,56.8,40.0,30.48,SSW,212,4.0,9.0,54,0.00,,,0.00,62,weatherlink.com 1.10,2013-05-03 16:04:00,
2013-05-03 12:19:00,57.3,40.0,30.47,ENE,74,1.0,6.0,53,0.00,,,0.00,90,weatherlink.com 1.10,2013-05-03 16:19:00,
2013-05-03 12:34:00,58.3,41.0,30.47,SSE,148,6.0,6.0,52,0.00,,,0.00,65,weatherlink.com 1.10,2013-05-03 16:34:00,
2013-05-03 12:49:00,57.1,40.0,30.47,South,183,4.0,12.0,53,0.00,,,0.00,72,weatherlink.com 1.10,2013-05-03 16:49:00,
2013-05-03 13:04:00,57.4,40.0,30.46,East,89,3.0,10.0,53,0.00,,,0.00,67,weatherlink.com 1.10,2013-05-03 17:04:00,
2013-05-03 13:19:00,57.6,41.0,30.46,SSE,163,5.0,7.0,54,0.00,,,0.00,72,weatherlink.com 1.10,2013-05-03 17:19:00,
2013-05-03 13:34:00,58.0,41.0,30.46,SSE,155,4.0,13.0,53,0.00,,,0.00,137,weatherlink.com 1.10,2013-05-03 17:34:00,
2013-05-03 13:49:00,58.9,41.0,30.45,SSW,202,2.0,10.0,52,0.00,,,0.00,914,weatherlink.com 1.10,2013-05-03 17:49:00,
2013-05-03 14:04:00,59.7,41.0,30.45,ENE,71,2.0,10.0,51,0.00,,,0.00,895,weatherlink.com 1.10,2013-05-03 18:04:00,
2013-05-03 14:19:00,59.3,41.0,30.45,East,97,6.0,11.0,52,0.00,,,0.00,902,weatherlink.com 1.10,2013-05-03 18:19:00,
2013-05-03 14:34:00,59.0,42.0,30.44,SE,128,2.0,10.0,53,0.00,,,0.00,853,weatherlink.com 1.10,2013-05-03 18:34:00,
2013-05-03 14:49:00,60.6,42.0,30.44,ENE,76,5.0,7.0,51,0.00,,,0.00,819,weatherlink.com 1.10,2013-05-03 18:49:00,
2013-05-03 15:04:00,61.4,43.0,30.43,ESE,117,2.0,7.0,51,0.00,,,0.00,791,weatherlink.com 1.10,2013-05-03 19:04:00,
2013-05-03 15:19:00,60.8,42.0,30.43,SSW,205,2.0,12.0,51,0.00,,,0.00,759,weatherlink.com 1.10,2013-05-03 19:19:00,
2013-05-03 15:34:00,61.0,43.0,30.42,SSE,165,2.0,10.0,52,0.00,,,0.00,111,weatherlink.com 1.10,2013-05-03 19:34:00,
2013-05-03 15:49:00,61.2,43.0,30.41,SSW,199,1.0,5.0,51,0.00,,,0.00,359,weatherlink.com 1.10,2013-05-03 19:49:00,
2013-05-03 16:04:00,60.9,43.0,30.41,SE,134,2.0,4.0,52,0.00,,,0.00,652,weatherlink.com 1.10,2013-05-03 20:04:00,
2013-05-03 16:19:00,60.8,43.0,30.41,SSE,156,1.0,5.0,52,0.00,,,0.00,288,weatherlink.com 1.10,2013-05-03 20:19:00,
2013-05-03 16:34:00,59.8,43.0,30.41,ESE,116,7.0,9.0,54,0.00,,,0.00,209,weatherlink.com 1.10,2013-05-03 20:34:00,
2013-05-03 16:49:00,60.1,43.0,30.40,SSW,192,1.0,4.0,54,0.00,,,0.00,343,weatherlink.com 1.10,2013-05-03 20:49:00,
2013-05-03 17:04:00,59.8,43.0,30.41,ENE,76,2.0,8.0,55,0.00,,,0.00,320,weatherlink.com 1.10,2013-05-03 21:04:00,
2013-05-03 17:19:00,59.8,44.0,30.41,SE,129,2.0,5.0,56,0.00,,,0.00,156,weatherlink.com 1.10,2013-05-03 21:19:00,
2013-05-03 17:34:00,59.4,43.0,30.40,South,169,0.0,6.0,56,0.00,,,0.00,46,weatherlink.com 1.10,2013-05-03 21:34:00,
2013-05-03 17:49:00,59.1,44.0,30.40,East,95,2.0,4.0,57,0.00,,,0.00,81,weatherlink.com 1.10,2013-05-03 21:49:00,
2013-05-03 18:04:00,58.8,44.0,30.40,South,178,1.0,4.0,58,0.00,,,0.00,47,weatherlink.com 1.10,2013-05-03 22:04:00,
2013-05-03 18:19:00,58.8,43.0,30.40,SE,146,1.0,6.0,57,0.00,,,0.00,32,weatherlink.com 1.10,2013-05-03 22:19:00,
2013-05-03 18:49:00,57.5,44.0,30.40,ESE,111,0.0,6.0,60,0.00,,,0.00,23,weatherlink.com 1.10,2013-05-03 22:49:00,
2013-05-03 19:04:00,56.9,44.0,30.40,ESE,107,0.0,3.0,62,0.00,,,0.00,18,weatherlink.com 1.10,2013-05-03 23:04:00,
2013-05-03 19:19:00,56.4,44.0,30.41,SSE,160,1.0,2.0,63,0.00,,,0.00,9,weatherlink.com 1.10,2013-05-03 23:19:00,
2013-05-03 19:34:00,55.7,44.0,30.41,ESE,123,0.0,2.0,65,0.00,,,0.00,5,weatherlink.com 1.10,2013-05-03 23:34:00,
2013-05-03 19:49:00,55.0,43.0,30.41,ESE,123,1.0,1.0,65,0.00,,,0.00,0,weatherlink.com 1.10,2013-05-03 23:49:00,
2013-05-03 20:04:00,54.4,43.0,30.41,East,101,0.0,0.0,66,0.00,,,0.00,0,weatherlink.com 1.10,2013-05-04 00:04:00,
2013-05-03 20:20:00,53.5,44.0,30.41,East,101,0.0,1.0,69,0.00,,,0.00,0,weatherlink.com 1.10,2013-05-04 00:20:00,
2013-05-03 20:35:00,52.9,44.0,30.41,East,101,0.0,1.0,72,0.00,,,0.00,0,weatherlink.com 1.10,2013-05-04 00:35:00,
2013-05-03 20:50:00,52.0,43.0,30.41,East,101,0.0,0.0,72,0.00,,,0.00,0,weatherlink.com 1.10,2013-05-04 00:50:00,
2013-05-03 21:05:00,51.1,42.0,30.41,East,101,0.0,0.0,72,0.00,,,0.00,0,weatherlink.com 1.10,2013-05-04 01:05:00,
2013-05-03 21:20:00,50.3,42.0,30.42,East,101,0.0,0.0,73,0.00,,,0.00,0,weatherlink.com 1.10,2013-05-04 01:20:00,
2013-05-03 21:35:00,49.5,42.0,30.41,East,101,0.0,0.0,75,0.00,,,0.00,0,weatherlink.com 1.10,2013-05-04 01:35:00,
2013-05-03 21:50:00,48.8,42.0,30.41,East,101,0.0,0.0,77,0.00,,,0.00,0,weatherlink.com 1.10,2013-05-04 01:50:00,
2013-05-03 22:05:00,48.1,42.0,30.41,East,101,0.0,0.0,79,0.00,,,0.00,0,weatherlink.com 1.10,2013-05-04 02:05:00,
2013-05-03 22:20:00,47.7,42.0,30.41,East,101,0.0,0.0,80,0.00,,,0.00,0,weatherlink.com 1.10,2013-05-04 02:20:00,
2013-05-03 22:35:00,47.3,42.0,30.40,East,101,0.0,1.0,82,0.00,,,0.00,0,weatherlink.com 1.10,2013-05-04 02:35:00,
2013-05-03 22:50:00,46.8,42.0,30.40,East,101,0.0,0.0,82,0.00,,,0.00,0,weatherlink.com 1.10,2013-05-04 02:50:00,
2013-05-03 23:05:00,46.2,42.0,30.40,East,101,0.0,1.0,84,0.00,,,0.00,0,weatherlink.com 1.10,2013-05-04 03:05:00,
2013-05-03 23:20:00,45.7,42.0,30.39,East,101,0.0,0.0,85,0.00,,,0.00,0,weatherlink.com 1.10,2013-05-04 03:20:00,
2013-05-03 23:35:00,45.3,41.0,30.39,East,101,1.0,2.0,86,0.00,,,0.00,0,weatherlink.com 1.10,2013-05-04 03:35:00,
2013-05-03 23:50:00,45.0,41.0,30.39,East,101,0.0,1.0,86,0.00,,,0.00,0,weatherlink.com 1.10,2013-05-04 03:50:00,